Time,TemperatureF,DewpointF,PressureIn,WindDirection,WindDirectionDegrees,WindSpeedMPH,WindSpeedGustMPH,Humidity,HourlyPrecipIn,Conditions,Clouds,dailyrainin,SoftwareType,DateUTC
2013-04-30 00:02:00,47.0,39.0,30.25,SE,141,0.0,0.0,75,-99.99,,,-99.99,,2013-04-30 04:02:00,
2013-04-30 00:12:00,47.0,39.0,30.25,SE,141,0.0,0.0,75,-99.99,,,-99.99,,2013-04-30 04:12:00,
2013-04-30 00:22:00,46.0,38.0,30.26,SE,141,0.0,0.0,73,-99.99,,,-99.99,,2013-04-30 04:22:00,
2013-04-30 00:32:00,46.0,38.0,30.26,SE,141,0.0,1.0,74,-99.99,,,-99.99,,2013-04-30 04:32:00,
2013-04-30 00:42:00,46.0,38.0,30.26,SE,141,0.0,1.0,74,-99.99,,,-99.99,,2013-04-30 04:42:00,
2013-04-30 00:52:00,45.0,37.0,30.26,SE,141,0.0,0.0,74,-99.99,,,-99.99,,2013-04-30 04:52:00,
2013-04-30 01:02:00,45.0,37.0,30.26,SE,141,0.0,0.0,74,-99.99,,,-99.99,,2013-04-30 05:02:00,
2013-04-30 01:12:00,45.0,37.0,30.26,SE,141,0.0,0.0,74,-99.99,,,-99.99,,2013-04-30 05:12:00,
2013-04-30 01:22:00,44.0,37.0,30.26,SE,141,0.0,0.0,75,-99.99,,,-99.99,,2013-04-30 05:22:00,
2013-04-30 01:31:00,44.0,37.0,30.26,SE,141,0.0,0.0,75,-99.99,,,-99.99,,2013-04-30 05:31:00,
2013-04-30 01:42:00,44.0,37.0,30.26,SE,141,0.0,0.0,75,-99.99,,,-99.99,,2013-04-30 05:42:00,
2013-04-30 01:51:00,43.0,36.0,30.25,SE,141,0.0,0.0,75,-99.99,,,-99.99,,2013-04-30 05:51:00,
2013-04-30 02:02:00,43.0,35.0,30.25,SE,141,0.0,0.0,74,-99.99,,,-99.99,,2013-04-30 06:02:00,
2013-04-30 02:12:00,43.0,35.0,30.25,SE,141,0.0,0.0,74,-99.99,,,-99.99,,2013-04-30 06:12:00,
2013-04-30 02:21:00,43.0,35.0,30.25,SE,141,0.0,0.0,74,-99.99,,,-99.99,,2013-04-30 06:21:00,
2013-04-30 02:32:00,42.0,34.0,30.25,SE,142,0.0,0.0,74,-99.99,,,-99.99,,2013-04-30 06:32:00,
2013-04-30 02:41:00,42.0,34.0,30.25,SE,142,0.0,0.0,74,-99.99,,,-99.99,,2013-04-30 06:41:00,
2013-04-30 02:52:00,42.0,34.0,30.25,SE,141,0.0,0.0,74,-99.99,,,-99.99,,2013-04-30 06:52:00,
2013-04-30 03:01:00,42.0,35.0,30.25,SE,141,0.0,0.0,75,-99.99,,,-99.99,,2013-04-30 07:01:00,
2013-04-30 03:11:00,42.0,35.0,30.25,SE,141,0.0,0.0,75,-99.99,,,-99.99,,2013-04-30 07:11:00,
2013-04-30 03:21:00,41.0,34.0,30.25,SE,141,0.0,0.0,76,-99.99,,,-99.99,,2013-04-30 07:21:00,
2013-04-30 03:32:00,41.0,34.0,30.25,SE,141,0.0,0.0,77,-99.99,,,-99.99,,2013-04-30 07:32:00,
2013-04-30 03:42:00,41.0,34.0,30.25,SE,141,0.0,0.0,77,-99.99,,,-99.99,,2013-04-30 07:42:00,
2013-04-30 03:52:00,41.0,34.0,30.26,SE,142,0.0,0.0,77,-99.99,,,-99.99,,2013-04-30 07:52:00,
2013-04-30 04:02:00,41.0,35.0,30.26,SE,141,0.0,0.0,78,-99.99,,,-99.99,,2013-04-30 08:02:00,
2013-04-30 04:11:00,41.0,35.0,30.26,SE,141,0.0,0.0,78,-99.99,,,-99.99,,2013-04-30 08:11:00,
2013-04-30 04:22:00,40.0,34.0,30.26,SE,142,0.0,0.0,78,-99.99,,,-99.99,,2013-04-30 08:22:00,
2013-04-30 04:32:00,40.0,34.0,30.26,SE,141,0.0,0.0,79,-99.99,,,-99.99,,2013-04-30 08:32:00,
2013-04-30 04:42:00,40.0,34.0,30.26,SE,141,0.0,0.0,79,-99.99,,,-99.99,,2013-04-30 08:42:00,
2013-04-30 04:52:00,40.0,34.0,30.27,SE,142,0.0,0.0,79,-99.99,,,-99.99,,2013-04-30 08:52:00,
2013-04-30 05:01:00,40.0,34.0,30.27,SE,141,0.0,0.0,80,-99.99,,,-99.99,,2013-04-30 09:01:00,
2013-04-30 05:11:00,40.0,34.0,30.27,SE,141,0.0,0.0,80,-99.99,,,-99.99,,2013-04-30 09:11:00,
2013-04-30 05:22:00,39.0,34.0,30.27,SE,142,0.0,0.0,81,-99.99,,,-99.99,,2013-04-30 09:22:00,
2013-04-30 05:33:00,39.0,34.0,30.27,SE,142,0.0,0.0,81,-99.99,,,-99.99,,2013-04-30 09:33:00,
2013-04-30 05:43:00,39.0,34.0,30.27,SE,142,0.0,0.0,81,-99.99,,,-99.99,,2013-04-30 09:43:00,
2013-04-30 05:52:00,39.0,34.0,30.28,SE,141,0.0,0.0,81,-99.99,,,-99.99,,2013-04-30 09:52:00,
2013-04-30 06:03:00,39.0,34.0,30.28,SE,141,0.0,0.0,82,-99.99,,,-99.99,,2013-04-30 10:03:00,
2013-04-30 06:12:00,39.0,34.0,30.28,SE,141,0.0,0.0,82,-99.99,,,-99.99,,2013-04-30 10:12:00,
2013-04-30 06:22:00,38.0,33.0,30.29,SE,141,0.0,0.0,83,-99.99,,,-99.99,,2013-04-30 10:22:00,
2013-04-30 06:32:00,38.0,34.0,30.29,SE,141,0.0,0.0,84,-99.99,,,-99.99,,2013-04-30 10:32:00,
2013-04-30 06:41:00,38.0,34.0,30.29,SE,141,0.0,0.0,84,-99.99,,,-99.99,,2013-04-30 10:41:00,
2013-04-30 06:52:00,38.0,34.0,30.30,SE,142,0.0,0.0,86,-99.99,,,-99.99,,2013-04-30 10:52:00,
2013-04-30 07:02:00,38.0,34.0,30.30,SE,141,0.0,0.0,86,-99.99,,,-99.99,,2013-04-30 11:02:00,
2013-04-30 07:11:00,38.0,34.0,30.30,SE,141,0.0,0.0,86,-99.99,,,-99.99,,2013-04-30 11:11:00,
2013-04-30 07:21:00,39.0,36.0,30.31,SE,141,0.0,0.0,88,-99.99,,,-99.99,,2013-04-30 11:21:00,
2013-04-30 07:31:00,40.0,37.0,30.31,SE,141,0.0,0.0,90,-99.99,,,-99.99,,2013-04-30 11:31:00,
2013-04-30 07:42:00,40.0,37.0,30.31,SE,141,0.0,0.0,90,-99.99,,,-99.99,,2013-04-30 11:42:00,
2013-04-30 07:51:00,43.0,39.0,30.31,SE,141,0.0,0.0,87,-99.99,,,-99.99,,2013-04-30 11:51:00,
2013-04-30 08:01:00,45.0,39.0,30.32,SE,141,0.0,0.0,80,-99.99,,,-99.99,,2013-04-30 12:01:00,
2013-04-30 08:11:00,45.0,39.0,30.32,SE,141,0.0,0.0,80,-99.99,,,-99.99,,2013-04-30 12:11:00,
2013-04-30 08:21:00,49.0,40.0,30.32,SE,142,0.0,2.0,71,-99.99,,,-99.99,,2013-04-30 12:21:00,
2013-04-30 08:31:00,52.0,41.0,30.32,SE,141,0.0,1.0,67,-99.99,,,-99.99,,2013-04-30 12:31:00,
2013-04-30 08:41:00,52.0,41.0,30.32,SE,141,0.0,1.0,67,-99.99,,,-99.99,,2013-04-30 12:41:00,
2013-04-30 08:51:00,56.0,41.0,30.32,SE,141,0.0,4.0,56,-99.99,,,-99.99,,2013-04-30 12:51:00,
2013-04-30 09:01:00,57.0,38.0,30.32,SE,141,2.0,4.0,49,-99.99,,,-99.99,,2013-04-30 13:01:00,
2013-04-30 09:11:00,57.0,38.0,30.32,SE,141,2.0,4.0,49,-99.99,,,-99.99,,2013-04-30 13:11:00,
2013-04-30 09:21:00,59.0,37.0,30.32,South,189,0.0,4.0,43,-99.99,,,-99.99,,2013-04-30 13:21:00,
2013-04-30 09:31:00,60.0,37.0,30.32,South,189,0.0,1.0,42,-99.99,,,-99.99,,2013-04-30 13:31:00,
2013-04-30 09:41:00,60.0,37.0,30.32,South,189,0.0,1.0,42,-99.99,,,-99.99,,2013-04-30 13:41:00,
2013-04-30 09:52:00,62.0,37.0,30.32,South,174,0.0,3.0,40,-99.99,,,-99.99,,2013-04-30 13:52:00,
2013-04-30 10:02:00,62.0,35.0,30.32,SE,136,4.0,7.0,36,-99.99,,,-99.99,,2013-04-30 14:02:00,
2013-04-30 10:11:00,64.0,36.0,30.32,SE,136,0.0,5.0,35,-99.99,,,-99.99,,2013-04-30 14:11:00,
2013-04-30 10:21:00,64.0,36.0,30.32,SE,136,0.0,5.0,35,-99.99,,,-99.99,,2013-04-30 14:21:00,
2013-04-30 10:31:00,64.0,39.0,30.32,SE,128,0.0,7.0,40,-99.99,,,-99.99,,2013-04-30 14:31:00,
2013-04-30 10:41:00,64.0,39.0,30.32,SE,128,0.0,7.0,40,-99.99,,,-99.99,,2013-04-30 14:41:00,
2013-04-30 10:52:00,65.0,37.0,30.32,South,176,0.0,5.0,35,-99.99,,,-99.99,,2013-04-30 14:52:00,
2013-04-30 11:01:00,65.0,37.0,30.32,SSE,164,4.0,9.0,36,-99.99,,,-99.99,,2013-04-30 15:01:00,
2013-04-30 11:11:00,65.0,37.0,30.32,SSE,164,4.0,9.0,36,-99.99,,,-99.99,,2013-04-30 15:11:00,
2013-04-30 11:21:00,66.0,38.0,30.31,SSE,156,0.0,1.0,36,-99.99,,,-99.99,,2013-04-30 15:21:00,
2013-04-30 11:32:00,66.0,37.0,30.31,SE,126,2.0,10.0,34,-99.99,,,-99.99,,2013-04-30 15:32:00,
2013-04-30 11:42:00,66.0,37.0,30.31,SE,126,2.0,10.0,34,-99.99,,,-99.99,,2013-04-30 15:42:00,
2013-04-30 11:52:00,65.0,37.0,30.31,East,80,2.0,11.0,36,-99.99,,,-99.99,,2013-04-30 15:52:00,
2013-04-30 12:02:00,66.0,36.0,30.31,ESE,113,5.0,10.0,33,-99.99,,,-99.99,,2013-04-30 16:02:00,
2013-04-30 12:12:00,66.0,36.0,30.31,ESE,113,5.0,10.0,33,-99.99,,,-99.99,,2013-04-30 16:12:00,
2013-04-30 12:23:00,66.0,40.0,30.31,SE,142,10.0,13.0,38,-99.99,,,-99.99,,2013-04-30 16:23:00,
2013-04-30 12:33:00,66.0,38.0,30.31,SE,134,1.0,17.0,35,-99.99,,,-99.99,,2013-04-30 16:33:00,
2013-04-30 12:42:00,66.0,38.0,30.31,SE,134,1.0,17.0,35,-99.99,,,-99.99,,2013-04-30 16:42:00,
2013-04-30 12:52:00,65.0,34.0,30.31,SE,135,10.0,15.0,32,-99.99,,,-99.99,,2013-04-30 16:52:00,
2013-04-30 13:02:00,65.0,33.0,30.31,SE,126,5.0,16.0,30,-99.99,,,-99.99,,2013-04-30 17:02:00,
2013-04-30 13:12:00,66.0,36.0,30.31,SSE,165,7.0,13.0,33,-99.99,,,-99.99,,2013-04-30 17:12:00,
2013-04-30 13:22:00,66.0,36.0,30.31,SSE,165,7.0,13.0,33,-99.99,,,-99.99,,2013-04-30 17:22:00,
2013-04-30 13:32:00,66.0,35.0,30.30,ESE,113,5.0,12.0,32,-99.99,,,-99.99,,2013-04-30 17:32:00,
2013-04-30 13:42:00,66.0,37.0,30.30,SSE,159,8.0,16.0,34,-99.99,,,-99.99,,2013-04-30 17:42:00,
2013-04-30 13:52:00,66.0,37.0,30.30,SSE,159,8.0,16.0,34,-99.99,,,-99.99,,2013-04-30 17:52:00,
2013-04-30 14:01:00,66.0,34.0,30.31,SSE,166,8.0,16.0,31,-99.99,,,-99.99,,2013-04-30 18:01:00,
2013-04-30 14:11:00,66.0,37.0,30.31,SE,136,11.0,16.0,34,-99.99,,,-99.99,,2013-04-30 18:11:00,
2013-04-30 14:22:00,66.0,37.0,30.31,SE,136,11.0,16.0,34,-99.99,,,-99.99,,2013-04-30 18:22:00,
2013-04-30 14:32:00,66.0,37.0,30.31,SSE,149,6.0,15.0,34,-99.99,,,-99.99,,2013-04-30 18:32:00,
2013-04-30 14:42:00,67.0,36.0,30.31,SE,137,10.0,14.0,32,-99.99,,,-99.99,,2013-04-30 18:42:00,
2013-04-30 14:52:00,67.0,36.0,30.31,SE,137,10.0,14.0,32,-99.99,,,-99.99,,2013-04-30 18:52:00,
2013-04-30 15:01:00,66.0,39.0,30.31,SE,134,11.0,16.0,37,-99.99,,,-99.99,,2013-04-30 19:01:00,
2013-04-30 15:11:00,66.0,36.0,30.30,SE,138,10.0,15.0,33,-99.99,,,-99.99,,2013-04-30 19:11:00,
2013-04-30 15:22:00,66.0,36.0,30.30,SE,138,10.0,15.0,33,-99.99,,,-99.99,,2013-04-30 19:22:00,
2013-04-30 15:32:00,66.0,36.0,30.30,ESE,117,7.0,16.0,33,-99.99,,,-99.99,,2013-04-30 19:32:00,
2013-04-30 15:42:00,65.0,38.0,30.30,SE,140,7.0,16.0,37,-99.99,,,-99.99,,2013-04-30 19:42:00,
2013-04-30 15:52:00,65.0,38.0,30.30,SE,140,7.0,16.0,37,-99.99,,,-99.99,,2013-04-30 19:52:00,
2013-04-30 16:02:00,65.0,37.0,30.30,SSE,154,7.0,16.0,35,-99.99,,,-99.99,,2013-04-30 20:02:00,
2013-04-30 16:11:00,65.0,37.0,30.30,SSE,154,7.0,16.0,35,-99.99,,,-99.99,,2013-04-30 20:11:00,
2013-04-30 16:21:00,65.0,35.0,30.30,SSE,154,11.0,15.0,33,-99.99,,,-99.99,,2013-04-30 20:21:00,
2013-04-30 16:32:00,65.0,37.0,30.30,SE,141,7.0,15.0,35,-99.99,,,-99.99,,2013-04-30 20:32:00,
2013-04-30 16:42:00,65.0,37.0,30.30,SE,141,7.0,15.0,35,-99.99,,,-99.99,,2013-04-30 20:42:00,
2013-04-30 16:52:00,64.0,34.0,30.30,SSE,150,9.0,15.0,33,-99.99,,,-99.99,,2013-04-30 20:52:00,
2013-04-30 17:02:00,64.0,34.0,30.30,NE,45,5.0,15.0,33,-99.99,,,-99.99,,2013-04-30 21:02:00,
2013-04-30 17:11:00,63.0,35.0,30.30,South,169,10.0,15.0,35,-99.99,,,-99.99,,2013-04-30 21:11:00,
2013-04-30 17:22:00,63.0,35.0,30.30,South,169,10.0,15.0,35,-99.99,,,-99.99,,2013-04-30 21:22:00,
2013-04-30 17:32:00,63.0,35.0,30.31,SE,145,8.0,15.0,35,-99.99,,,-99.99,,2013-04-30 21:32:00,
2013-04-30 17:42:00,63.0,35.0,30.31,SE,145,8.0,15.0,35,-99.99,,,-99.99,,2013-04-30 21:42:00,
2013-04-30 17:53:00,63.0,34.0,30.31,SE,146,5.0,10.0,34,-99.99,,,-99.99,,2013-04-30 21:53:00,
2013-04-30 18:02:00,63.0,35.0,30.31,SE,130,7.0,12.0,35,-99.99,,,-99.99,,2013-04-30 22:02:00,
2013-04-30 18:12:00,61.0,35.0,30.32,East,82,7.0,12.0,37,-99.99,,,-99.99,,2013-04-30 22:12:00,
2013-04-30 18:23:00,61.0,35.0,30.32,East,82,7.0,12.0,37,-99.99,,,-99.99,,2013-04-30 22:23:00,
2013-04-30 18:32:00,61.0,35.0,30.31,SE,144,6.0,12.0,37,-99.99,,,-99.99,,2013-04-30 22:32:00,
2013-04-30 18:42:00,61.0,35.0,30.31,SE,144,6.0,12.0,37,-99.99,,,-99.99,,2013-04-30 22:42:00,
2013-04-30 18:53:00,61.0,36.0,30.32,SE,139,3.0,9.0,39,-99.99,,,-99.99,,2013-04-30 22:53:00,
2013-04-30 19:02:00,60.0,36.0,30.32,East,84,3.0,9.0,40,-99.99,,,-99.99,,2013-04-30 23:02:00,
2013-04-30 19:12:00,59.0,37.0,30.32,ESE,110,2.0,6.0,43,-99.99,,,-99.99,,2013-04-30 23:12:00,
2013-04-30 19:22:00,59.0,37.0,30.32,ESE,110,2.0,6.0,43,-99.99,,,-99.99,,2013-04-30 23:22:00,
2013-04-30 19:32:00,58.0,36.0,30.32,ESE,110,4.0,9.0,44,-99.99,,,-99.99,,2013-04-30 23:32:00,
2013-04-30 19:42:00,58.0,36.0,30.32,ESE,110,4.0,9.0,44,-99.99,,,-99.99,,2013-04-30 23:42:00,
2013-04-30 19:52:00,57.0,36.0,30.33,SE,131,5.0,10.0,46,-99.99,,,-99.99,,2013-04-30 23:52:00,
2013-04-30 20:02:00,57.0,36.0,30.33,SE,131,5.0,10.0,46,-99.99,,,-99.99,,2013-05-01 00:02:00,
2013-04-30 20:11:00,57.0,36.0,30.33,SE,131,5.0,10.0,46,-99.99,,,-99.99,,2013-05-01 00:11:00,
2013-04-30 20:22:00,57.0,36.0,30.33,SE,131,5.0,10.0,46,-99.99,,,-99.99,,2013-05-01 00:22:00,